Flag for U.S.A. Weather past 2 weeks in Sheboygan, Wisconsin, U.S.A.

Now
49 °F

Clear.


Feels Like: 46 °F
Forecast: 48 / 61 °F
Wind: 7 mph from Southwest

Location: Sheboygan County Memorial Airport

Current Time: Oct 25, 2014 at 2:29:44 AM

Latest Report: Oct 25, 2014 at 1:53 AM


Visibility: 9 mi

Pressure: 29.83 "Hg

Humidity: 93%

Dew point: 47 °F

Location of SheboyganLocation

Historic Weather in Sheboygan — Graph

°F

Sheboygan temperature yesterday

Maximum temperature yesterday: 63 °F (at 3:53 PM)
Minimum temperature yesterday: 48 °F (at 6:53 AM)
Average temperature yesterday: 52 °F

Past Weeks' High & Low Weather Summary

 TemperatureHumidityPressure
High63 °F (Oct 24, 3:53 PM)100% (Oct 13, 7:53 AM)30.40 "Hg (Oct 13, 7:53 AM)
Low28 °F (Oct 22, 4:53 AM)48% (Oct 18, 4:53 PM)29.48 "Hg (Oct 17, 4:53 AM)
Average48 °F84%29.93 "Hg
* Reported Oct 10 8:53 AM — Oct 25 12:53 AM, Sheboygan, Weather by CustomWeather, © 2014

Note: Actual official high and low records may vary slightly from our data, if they occured in-between our weather recording intervals... More about our weather records

Advertising

Sheboygan weather history for previous 24 hours

 ConditionsComfort  
Time TempWeatherWind HumidityBarometerVisibility
12:53 AM
Oct 25
50 °FFog.5 mph89%29.84 "Hg6 mi
11:53 PM
Oct 24
51 °FPassing clouds.7 mph92%29.86 "Hg7 mi
10:53 PM53 °FOvercast.6 mph89%29.89 "Hg8 mi
9:53 PM53 °FOvercast.6 mph89%29.90 "Hg9 mi
8:53 PM52 °FLight rain. Passing clouds.6 mph89%29.92 "Hg7 mi
7:53 PM51 °FMostly cloudy.6 mph92%29.93 "Hg7 mi
6:53 PM51 °FFog.No wind89%29.94 "Hg6 mi
5:53 PM54 °FSunny.3 mph83%29.93 "Hg7 mi
4:53 PM60 °FSunny.7 mph65%29.93 "Hg10 mi
3:53 PM63 °FSunny.8 mph60%29.93 "Hg10 mi
2:53 PM62 °FSunny.10 mph62%29.94 "Hg10 mi
1:53 PM60 °FSunny.6 mph67%29.96 "Hg10 mi
12:53 PM55 °FPassing clouds.7 mph77%30.00 "Hg10 mi
11:53 AM53 °FLow clouds.6 mph83%30.02 "Hg10 mi
10:53 AM51 °FLow clouds.5 mph86%30.03 "Hg10 mi
9:53 AM50 °FLow clouds.6 mph89%30.05 "Hg10 mi
8:53 AM49 °FLow clouds.6 mph90%30.05 "Hg10 mi
7:53 AM49 °FLow clouds.5 mph90%30.05 "Hg10 mi
6:53 AM48 °FFog.5 mph96%30.04 "Hg3 mi
5:53 AM49 °FFog.6 mph93%30.04 "Hg4 mi
4:53 AM49 °FFog.No wind97%30.03 "Hg2 mi
3:53 AM49 °FFog.5 mph97%30.03 "Hg3 mi
3:04 AM50 °FFog.5 mph93%30.03 "Hg2 mi
2:53 AM50 °FFog.5 mph96%30.03 "Hg1 mi
Weather by CustomWeather, © 2014

See weather overviewHow to use our weather pages